Flag for Denmark Weather past 2 weeks in Aalborg, Denmark

45 °F

Passing clouds.

Feels Like: 41 °F
Forecast: 44 / 54 °F
Wind: 7 mph from North

Location: Aalborg Airport

Current Time: Oct 14, 2015 at 5:10:20 AM

Latest Report: Oct 14, 2015 at 4:50 AM

Visibility: N/A

Pressure: 30.33 "Hg

Humidity: 87%

Dew point: 41 °F

Location of AalborgLocation

Historic Weather in Aalborg — Graph


Aalborg temperature yesterday

Maximum temperature yesterday: 52 °F (at 1:20 PM)
Minimum temperature yesterday: 43 °F (at 7:20 AM)
Average temperature yesterday: 47 °F

Past Weeks' High & Low Weather Summary

High64 °F (Sep 29, 1:50 PM)100% (Sep 29, 4:20 AM)30.74 "Hg (Sep 29, 4:20 AM)
Low41 °F (Sep 29, 4:20 AM)52% (Sep 29, 2:20 PM)29.92 "Hg (Oct 4, 2:20 AM)
Average52 °F83%30.24 "Hg
* Reported Sep 29 3:20 AM — Oct 14 3:50 AM, Aalborg, Weather by CustomWeather, © 2015

Note: Actual official high and low records may vary slightly from our data, if they occured in-between our weather recording intervals... More about our weather records


Aalborg weather history for previous 24 hours

Time TempWeatherWind HumidityBarometerVisibility
3:50 AM
Wed, Oct 14
43 °FClear.6 mph93%30.33 "Hg10 mi
3:20 AM43 °FClear.7 mph93%30.33 "Hg10 mi
2:50 AM45 °FClear.7 mph87%30.33 "Hg10 mi
2:20 AM45 °FPassing clouds.7 mph93%30.33 "HgN/A
1:50 AM45 °FPassing clouds.8 mph93%30.33 "HgN/A
1:20 AM45 °FPassing clouds.7 mph93%30.33 "HgN/A
12:50 AM46 °FPassing clouds.7 mph87%30.33 "HgN/A
12:20 AM46 °FClear.7 mph87%30.33 "Hg10 mi
11:20 PM
Tue, Oct 13
48 °FClear.8 mph82%30.33 "Hg10 mi
10:50 PM48 °FClear.8 mph82%30.33 "Hg10 mi
10:20 PM48 °FPassing clouds.10 mph82%30.33 "HgN/A
9:50 PM50 °FPassing clouds.8 mph76%30.33 "HgN/A
9:20 PM48 °FPassing clouds.8 mph82%30.30 "HgN/A
8:50 PM48 °FPassing clouds.7 mph82%30.33 "HgN/A
8:20 PM48 °FPassing clouds.7 mph82%30.30 "HgN/A
7:50 PM48 °FClear.7 mph82%30.30 "Hg10 mi
7:20 PM48 °FSunny.6 mph82%30.30 "Hg10 mi
6:50 PM50 °FPartly sunny.6 mph76%30.30 "HgN/A
6:20 PM50 °FPartly sunny.7 mph76%30.30 "HgN/A
5:50 PM50 °FPartly sunny.8 mph76%30.30 "HgN/A
5:20 PM50 °FPartly sunny.10 mph76%30.30 "HgN/A
4:50 PM50 °FPartly sunny.9 mph82%30.30 "HgN/A
4:20 PM50 °FSprinkles. Partly sunny.14 mph76%30.30 "HgN/A
3:50 PM52 °FPartly sunny.13 mph72%30.30 "HgN/A
3:20 PM52 °FBroken clouds.14 mph72%30.30 "HgN/A
2:50 PM52 °FScattered clouds.13 mph72%30.30 "HgN/A
2:20 PM52 °FScattered clouds.10 mph72%30.33 "HgN/A
1:50 PM52 °FScattered clouds.12 mph72%30.33 "HgN/A
1:20 PM52 °FPartly sunny.12 mph67%30.33 "HgN/A
12:50 PM50 °FPartly sunny.8 mph71%30.33 "HgN/A
11:50 AM48 °FPartly sunny.7 mph71%30.33 "HgN/A
11:20 AM48 °FPartly sunny.7 mph66%30.36 "HgN/A
10:50 AM46 °FPartly sunny.7 mph71%30.36 "HgN/A
9:50 AM45 °FSunny.7 mph76%30.36 "Hg10 mi
9:20 AM43 °FScattered clouds.6 mph81%30.36 "HgN/A
8:50 AM43 °FScattered clouds.6 mph81%30.36 "HgN/A
8:20 AM43 °FPassing clouds.7 mph76%30.33 "HgN/A
7:50 AM43 °FPassing clouds.6 mph76%30.33 "HgN/A
7:20 AM43 °FPassing clouds.6 mph81%30.33 "HgN/A
6:50 AM45 °FPassing clouds.5 mph76%30.33 "HgN/A
6:20 AM45 °FPassing clouds.7 mph76%30.33 "HgN/A
5:50 AM45 °FPassing clouds.7 mph76%30.33 "HgN/A
5:20 AM45 °FPassing clouds.6 mph81%30.33 "HgN/A
Weather by CustomWeather, © 2015

See weather overviewHow to use our weather pages